Location: Newark
(33.6439°N, 114.9881°W)
Time: 03:25:47
(UTC+00:00)

Tiros 1 - Pass Details

Date: 25 July 2019
Orbit: 630 x 664 km, 48.4° (Epoch: 21 August)

Event Time Altitude Azimuth Distance (km) Brightness Sun altitude
Rises 01:28:40 0° 303° (WNW) 2,991 12.0 14.4°
Reaches altitude 10° 01:31:06 10° 297° (WNW) 2,073 11.9 13.9°
Maximum altitude 01:35:41 47° 225° (SW) 867 8.3 13.0°
Drops below altitude 10° 01:40:13 10° 151° (SSE) 2,047 9.4 12.0°
Sets 01:42:36 0° 145° (SE) 2,949 10.1 11.6°
